N1ADJ Weather Reports


time (UTC)temp
C
wind
direction
speed
KPH
gust
KPH
rain 1hr
cm
rain 24hr
cm
rain mn
cm
humidity
%
barometer
mb
20260505012018 9 0.0 0.0 0.00 0.00 0.00 84 1007.0
20260505011522 9 0.0 0.0 0.00 0.00 0.00 83 1007.0
20260505011020 10 0.0 0.0 0.00 0.00 0.00 81 1006.9
20260505010542 10 0.0 4.8 0.00 0.00 0.00 81 1006.9
20260505010017 10 0.0 0.0 0.00 0.00 0.00 80 1006.8
20260505005539 10 0.0 0.0 0.00 0.00 0.00 80 1006.8
20260505005019 10 0.0 3.2 0.00 0.00 0.00 79 1006.8
20260505004518 10 0.0 0.0 0.00 0.00 0.00 79 1006.6
20260505004018 10 0.0 0.0 0.00 0.00 0.00 78 1006.6
20260505003538 10 0.0 1.6 0.00 0.00 0.00 78 1006.4
20260505003042 11 0.0 0.0 0.00 0.00 0.00 77 1006.4
20260505002518 11 0.0 1.6 0.00 0.00 0.00 76 1006.3
20260505002017 11 0.0 0.0 0.00 0.00 0.00 76 1006.1
20260505001522 11 135 1.6 4.8 0.00 0.00 0.00 75 1006.1
20260505001041 11 0.0 4.8 0.00 0.00 0.00 74 1006.0
20260505000518 11 0.0 1.6 0.00 0.00 0.00 73 1005.9
20260505000017 12 0.0 0.0 0.00 0.00 0.00 72 1006.1
20260504235518 12 0.0 0.0 0.00 0.00 0.00 71 1006.1
20260504235019 12 0.0 4.8 0.00 0.00 0.00 70 1006.0
20260504234519 13 0.0 4.8 0.00 0.00 0.00 70 1005.9
20260504234017 13 0.0 3.2 0.00 0.00 0.00 69 1005.8
20260504233517 13 0.0 3.2 0.00 0.00 0.00 67 1005.7
20260504233037 13 0.0 0.0 0.00 0.00 0.00 67 1005.6
20260504232517 14 0.0 4.8 0.00 0.00 0.00 66 1005.4
20260504232022 14 0.0 0.0 0.00 0.00 0.00 65 1005.2
20260504231608 15 135 1.6 11.3 0.00 0.00 0.00 65 1005.1
20260504231017 15 135 1.6 6.4 0.00 0.00 0.00 65 1005.0
20260504230517 15 0.0 3.2 0.00 0.00 0.00 65 1004.9
20260504230018 15 113 1.6 4.8 0.00 0.00 0.00 65 1005.0
20260504225518 15 113 4.8 11.3 0.00 0.00 0.00 63 1004.9
20260504225017 15 135 4.8 11.3 0.00 0.00 0.00 62 1004.8
20260504224517 16 135 1.6 6.4 0.00 0.00 0.00 62 1004.7
20260504224017 16 135 1.6 6.4 0.00 0.00 0.00 61 1004.8
20260504223537 16 113 3.2 9.7 0.00 0.00 0.00 61 1004.8
20260504223019 16 135 1.6 6.4 0.00 0.00 0.00 61 1004.8
20260504222518 16 90 3.2 12.9 0.00 0.00 0.00 61 1004.7
20260504222017 17 135 3.2 11.3 0.00 0.00 0.00 60 1004.9
20260504221520 17 113 6.4 11.3 0.00 0.00 0.00 58 1004.6
20260504221037 17 90 1.6 9.7 0.00 0.00 0.00 59 1004.8
20260504220518 17 113 1.6 9.7 0.00 0.00 0.00 59 1004.7
20260504220017 17 135 1.6 6.4 0.00 0.00 0.00 58 1004.6
20260504215519 18 0.0 4.8 0.00 0.00 0.00 57 1004.7
20260504215017 18 0.0 4.8 0.00 0.00 0.00 57 1004.8
20260504214519 18 158 1.6 6.4 0.00 0.00 0.00 54 1004.6
20260504214017 19 135 1.6 9.7 0.00 0.00 0.00 54 1004.8
20260504213517 20 203 3.2 11.3 0.00 0.00 0.00 52 1004.6
20260504213018 20 203 3.2 9.7 0.00 0.00 0.00 51 1004.6
20260504212537 20 158 3.2 14.5 0.00 0.00 0.00 48 1004.4
20260504212017 21 225 9.7 19.3 0.00 0.00 0.00 47 1004.7
20260504211522 21 248 9.7 20.9 0.00 0.00 0.00 44 1004.5
20260504211018 21 270 12.9 24.1 0.00 0.00 0.00 44 1004.3
20260504210518 20 270 14.5 24.1 0.00 0.00 0.00 41 1004.3
20260504210038 20 270 14.5 24.1 0.00 0.00 0.00 44 1004.4
20260504205518 21 270 16.1 27.4 0.00 0.00 0.00 41 1004.4
20260504205018 21 248 16.1 25.7 0.00 0.00 0.00 44 1004.4
20260504204537 21 270 16.1 27.4 0.00 0.00 0.00 44 1004.3
20260504204018 21 270 12.9 24.1 0.00 0.00 0.00 43 1004.3
20260504203518 21 270 14.5 32.2 0.00 0.00 0.00 43 1004.3
20260504203017 21 270 9.7 24.1 0.00 0.00 0.00 44 1004.4
20260504202517 20 248 16.1 27.4 0.00 0.00 0.00 48 1004.6
20260504202017 20 270 19.3 33.8 0.00 0.00 0.00 45 1004.7
20260504201537 20 270 14.5 33.8 0.00 0.00 0.00 44 1004.6
20260504201018 19 270 8.0 20.9 0.00 0.00 0.00 49 1004.6
20260504200518 19 225 3.2 11.3 0.00 0.00 0.00 52 1004.8
20260504200037 18 315 3.2 6.4 0.00 0.00 0.00 54 1004.9
20260504195622 18 0.0 4.8 0.00 0.00 0.00 59 1004.9
20260504195017 18 90 3.2 12.9 0.00 0.00 0.00 60 1004.5
20260504194542 18 113 3.2 11.3 0.00 0.00 0.00 61 1004.8
20260504194018 18 135 3.2 9.7 0.00 0.00 0.00 60 1005.0
20260504193518 18 113 4.8 12.9 0.00 0.00 0.00 63 1004.8
20260504193022 18 113 3.2 11.3 0.00 0.00 0.00 60 1005.0
20260504192517 17 135 3.2 11.3 0.00 0.00 0.00 61 1005.0
20260504192017 17 113 4.8 12.9 0.00 0.00 0.00 62 1004.9
20260504191517 17 90 6.4 12.9 0.00 0.00 0.00 64 1004.8
20260504191103 17 113 4.8 9.7 0.00 0.00 0.00 65 1005.0
20260504190519 16 68 4.8 8.0 0.00 0.00 0.00 65 1004.9
20260504190018 15 113 1.6 8.0 0.00 0.00 0.00 71 1005.3
20260504185521 15 113 1.6 4.8 0.00 0.00 0.00 70 1005.2
20260504185017 15 113 1.6 4.8 0.00 0.00 0.00 69 1005.3
20260504184518 15 113 1.6 4.8 0.00 0.00 0.00 69 1005.3
20260504184017 15 0.0 4.8 0.00 0.00 0.00 68 1005.2
20260504183540 15 135 3.2 6.4 0.00 0.00 0.00 68 1005.3
20260504183017 15 135 4.8 8.0 0.00 0.00 0.00 67 1005.3
20260504182539 15 135 3.2 9.7 0.00 0.00 0.00 66 1005.3
20260504182017 15 135 3.2 6.4 0.00 0.00 0.00 66 1005.3
20260504181517 15 135 4.8 8.0 0.00 0.00 0.00 66 1005.4
20260504181017 15 113 1.6 6.4 0.00 0.00 0.00 67 1005.4
20260504180516 15 113 1.6 6.4 0.00 0.00 0.00 67 1005.4
20260504180107 14 113 3.2 6.4 0.00 0.00 0.00 68 1005.3
20260504175547 14 0.0 3.2 0.00 0.00 0.00 68 1005.3
20260504175017 15 0.0 4.8 0.00 0.00 0.00 67 1005.4
20260504174517 15 203 1.6 9.7 0.00 0.00 0.00 66 1005.3
20260504174017 15 225 1.6 4.8 0.00 0.00 0.00 62 1005.4
20260504173516 15 270 3.2 11.3 0.00 0.00 0.00 63 1005.3
20260504173017 16 225 3.2 12.9 0.00 0.00 0.00 60 1005.2
20260504172517 16 203 6.4 17.7 0.00 0.00 0.00 58 1005.0
20260504172016 16 225 6.4 16.1 0.00 0.00 0.00 58 1004.7
20260504171518 17 225 6.4 12.9 0.00 0.00 0.00 60 1004.8
20260504171017 17 203 3.2 11.3 0.00 0.00 0.00 60 1004.8
20260504170522 17 180 4.8 16.1 0.00 0.00 0.00 54 1004.7
20260504151017 15 225 9.7 19.3 0.00 0.00 0.00 63 1006.3
20260504150517 15 225 11.3 19.3 0.00 0.00 0.00 61 1006.4
20260504141016 13 203 6.4 14.5 0.00 0.00 0.00 66 1007.3
20260504140538 12 225 9.7 19.3 0.00 0.03 0.00 66 1007.3
20260504130523 11 203 12.9 25.7 0.00 0.08 0.00 69 1007.8
20260504110518 6 225 1.6 8.0 0.00 0.10 0.00 71 1008.1
20260504100518 5 248 1.6 4.8 0.00 0.10 0.00 76 1007.8
20260504081520 3 248 1.6 6.4 0.00 0.10 0.00 79 1007.6
20260504081023 3 0.0 3.2 0.00 0.10 0.00 79 1007.6
20260504080518 3 0.0 4.8 0.00 0.10 0.00 79 1007.6
20260504050519 1 0.0 0.0 0.00 0.10 0.00 84 1007.4
20260504045522 1 0.0 0.0 0.00 0.10 0.00 84 1007.3
20260504045017 1 0.0 0.0 0.00 0.10 0.00 84 1007.4
20260504044518 1 0.0 0.0 0.00 0.10 0.00 83 1007.3
20260504044017 2 0.0 0.0 0.00 0.10 0.00 83 1007.4
20260504043518 2 0.0 0.0 0.00 0.10 0.00 82 1007.3
20260504043017 2 0.0 0.0 0.00 0.10 0.00 82 1007.5
20260504042519 2 0.0 0.0 0.00 0.10 0.00 81 1007.4
20260504042019 2 0.0 0.0 0.00 0.10 0.00 81 1007.3
20260504041520 2 0.0 0.0 0.00 0.10 0.00 81 1007.6
20260504041019 2 0.0 0.0 0.00 0.10 0.00 81 1007.3
20260504040542 2 0.0 0.0 0.00 0.10 0.00 80 1007.5
20260504040058 2 0.0 0.0 0.00 0.10 0.10 79 1007.4
20260504035519 3 180 1.6 4.8 0.00 0.10 0.10 78 1007.5
20260504035018 3 0.0 4.8 0.00 0.10 0.10 78 1007.4
20260504034520 3 0.0 3.2 0.00 0.10 0.10 78 1007.3
20260504034039 3 0.0 0.0 0.00 0.10 0.10 77 1007.3
20260504033518 3 0.0 0.0 0.00 0.10 0.10 76 1007.2
20260504033017 3 0.0 0.0 0.00 0.10 0.10 75 1007.2
20260504032517 4 0.0 0.0 0.00 0.10 0.10 74 1007.0
20260504032038 4 0.0 0.0 0.00 0.10 0.10 73 1007.1
20260504031518 5 0.0 0.0 0.00 0.10 0.10 72 1007.1
20260504031018 5 0.0 0.0 0.00 0.10 0.10 71 1007.1
20260504030518 5 0.0 0.0 0.00 0.10 0.10 70 1007.2
20260504030029 5 0.0 0.0 0.00 0.10 0.10 69 1007.0
20260504025519 6 0.0 0.0 0.00 0.10 0.10 68 1007.0
20260504025020 6 270 1.6 6.4 0.00 0.10 0.10 66 1007.1
20260504024517 6 270 3.2 6.4 0.00 0.10 0.10 66 1007.2
20260504024017 6 270 4.8 9.7 0.00 0.10 0.10 68 1007.1
20260504023518 6 270 4.8 9.7 0.00 0.10 0.10 70 1007.2
20260504023037 6 248 3.2 6.4 0.00 0.10 0.10 67 1007.3
20260504022517 6 0.0 4.8 0.00 0.10 0.10 65 1007.3
20260504022017 7 270 3.2 6.4 0.00 0.10 0.10 64 1007.2
20260504021517 7 270 3.2 6.4 0.00 0.10 0.10 64 1007.2
20260504021017 7 270 4.8 9.7 0.00 0.10 0.10 64 1007.1
20260504020518 7 270 4.8 11.3 0.00 0.10 0.10 63 1007.1
20260504020018 7 270 4.8 9.7 0.00 0.10 0.10 61 1007.1
20260504015537 7 270 4.8 11.3 0.00 0.10 0.10 60 1007.1
20260504015039 7 270 4.8 9.7 0.00 0.10 0.10 58 1007.1
20260504014518 7 270 3.2 9.7 0.00 0.10 0.10 58 1007.0
20260504014019 7 270 4.8 12.9 0.00 0.10 0.10 57 1007.0
20260504013538 8 270 4.8 11.3 0.00 0.10 0.10 57 1007.0
20260504013019 8 270 6.4 12.9 0.00 0.10 0.10 57 1006.9
20260504012518 8 270 3.2 14.5 0.00 0.10 0.10 57 1006.9